DW8356 Weather Reports


Display with metric or nautical units.
time (UTC)temp
F
wind
direction
speed
MPH
gust
MPH
rain 1hr
in
rain 24hr
in
rain mn
in
humidity
%
barometer
mb
20260510104552 64 100 1.0 5.0 0.00 0.31 0.30 90 1013.9
20260510104022 64 0 1.0 5.0 0.00 0.31 0.30 90 1013.9
20260510103524 64 138 1.0 3.0 0.01 0.31 0.30 90 1013.8
20260510103043 64 179 0.0 4.0 0.02 0.31 0.30 90 1013.8
20260510102522 64 178 1.0 10.0 0.14 0.31 0.30 90 1013.5
20260510102026 64 148 4.0 10.0 0.25 0.31 0.30 89 1013.3
20260510101547 64 183 2.0 11.0 0.29 0.31 0.30 89 1013.5
20260510101023 64 149 4.0 11.0 0.30 0.31 0.30 89 1013.6
20260510100523 64 99 3.0 16.0 0.30 0.31 0.30 89 1013.7
20260510100049 64 63 5.0 19.0 0.30 0.31 0.30 88 1013.9
20260510095526 64 130 6.0 19.0 0.30 0.31 0.30 88 1013.8
20260510095023 64 136 6.0 16.0 0.30 0.31 0.30 88 1013.8
20260510094538 64 83 6.0 17.0 0.30 0.31 0.30 87 1014.0
20260510094022 65 37 6.0 17.0 0.30 0.31 0.30 86 1013.8
20260510093523 65 59 8.0 23.0 0.29 0.30 0.29 86 1013.3
20260510093044 66 124 10.0 23.0 0.27 0.28 0.27 85 1013.0
20260510092525 67 112 8.0 21.0 0.15 0.16 0.15 82 1013.7
20260510092023 68 25 7.0 21.0 0.03 0.04 0.03 80 1014.3
20260510091539 68 44 10.0 27.0 0.00 0.01 0.00 78 1014.6
20260510091022 69 82 12.0 27.0 0.00 0.01 0.00 76 1014.4
20260510090522 70 9 11.0 27.0 0.00 0.01 0.00 74 1013.8
20260510090036 70 30 12.0 24.0 0.00 0.01 0.00 72 1013.6
20260510085523 71 35 8.0 18.0 0.00 0.01 0.00 75 1013.8
20260510085023 72 57 8.0 18.0 0.00 0.01 0.00 81 1013.7
20260510084556 72 46 6.0 14.0 0.00 0.01 0.00 85 1013.4
20260510084023 73 33 8.0 14.0 0.00 0.01 0.00 86 1013.1
20260510083523 73 76 6.0 14.0 0.00 0.01 0.00 88 1012.8
20260510083049 73 26 4.0 11.0 0.00 0.01 0.00 88 1012.5
20260510082522 73 74 5.0 9.0 0.00 0.01 0.00 88 1012.1
20260510082022 73 98 3.0 9.0 0.00 0.01 0.00 88 1012.1
20260510081547 73 132 3.0 10.0 0.00 0.01 0.00 88 1012.1
20260510081023 73 40 4.0 10.0 0.00 0.01 0.00 88 1012.5
20260510080523 73 58 3.0 8.0 0.00 0.01 0.00 87 1012.5
20260510080037 73 57 4.0 7.0 0.00 0.01 0.00 87 1012.3
20260510075526 73 90 2.0 6.0 0.00 0.01 0.00 87 1011.9
20260510075023 73 97 1.0 7.0 0.00 0.01 0.00 87 1011.7
20260510074538 73 44 1.0 7.0 0.00 0.01 0.00 87 1011.5
20260510074021 73 125 2.0 9.0 0.00 0.01 0.00 86 1011.3
20260510073523 74 119 3.0 9.0 0.00 0.01 0.00 86 1011.2
20260510073046 74 92 3.0 8.0 0.00 0.01 0.00 86 1011.1
20260510072522 74 91 2.0 8.0 0.00 0.01 0.00 85 1011.0
20260510072022 74 185 3.0 11.0 0.00 0.01 0.00 85 1010.7
20260510071540 74 92 4.0 11.0 0.00 0.01 0.00 84 1010.4
20260510071021 74 93 4.0 11.0 0.00 0.01 0.00 84 1010.5
20260510070521 75 102 3.0 9.0 0.00 0.01 0.00 83 1010.4
20260510070040 75 147 4.0 18.0 0.00 0.01 0.00 83 1010.1
20260510065522 75 165 5.0 18.0 0.00 0.01 0.00 83 1009.9
20260510065025 75 132 3.0 8.0 0.00 0.01 0.00 83 1010.8
20260510064538 75 101 2.0 10.0 0.00 0.01 0.00 83 1011.8
20260510064023 75 31 5.0 12.0 0.00 0.01 0.00 83 1012.2
20260510063522 75 26 5.0 12.0 0.00 0.01 0.00 83 1012.3
20260510063038 75 17 5.0 11.0 0.00 0.01 0.00 83 1012.5
20260510062522 75 66 5.0 11.0 0.00 0.01 0.00 83 1012.6
20260510062022 75 29 4.0 9.0 0.00 0.01 0.00 82 1012.6
20260510061545 75 22 3.0 10.0 0.00 0.01 0.00 82 1012.4
20260510061022 75 17 4.0 10.0 0.00 0.01 0.00 82 1012.2
20260510060522 75 347 4.0 10.0 0.00 0.01 0.00 81 1012.4
20260510060042 75 5 3.0 5.0 0.00 0.01 0.00 81 1012.2
20260510055522 75 344 3.0 6.0 0.00 0.01 0.00 81 1011.5
20260510055022 75 52 2.0 7.0 0.00 0.01 0.00 81 1010.9
20260510054532 75 124 3.0 7.0 0.00 0.01 0.00 81 1010.2
20260510054022 75 149 1.0 7.0 0.00 0.01 0.00 81 1010.1
20260510053521 75 129 2.0 7.0 0.00 0.01 0.00 81 1010.1
20260510053041 75 139 2.0 7.0 0.00 0.01 0.00 81 1010.0
20260510052521 75 134 1.0 7.0 0.00 0.01 0.00 80 1009.9
20260510052026 75 171 2.0 8.0 0.00 0.01 0.00 80 1009.9
20260510051542 75 155 2.0 8.0 0.00 0.01 0.00 79 1009.7
20260510051023 75 167 2.0 8.0 0.00 0.01 0.00 79 1009.5
20260510050521 75 153 2.0 7.0 0.00 0.01 0.00 78 1009.6
20260510050039 75 178 1.0 6.0 0.00 0.01 0.00 77 1009.7
20260510045522 75 163 2.0 7.0 0.00 0.01 0.01 76 1009.7
20260510045022 75 153 1.0 7.0 0.00 0.01 0.01 76 1009.6
20260510044538 75 145 1.0 7.0 0.00 0.01 0.01 75 1009.6
20260510044023 75 165 3.0 7.0 0.00 0.01 0.01 74 1009.3
20260510043522 74 134 2.0 6.0 0.00 0.01 0.01 74 1009.1
20260510043035 75 123 1.0 6.0 0.00 0.01 0.01 73 1009.2
20260510042522 75 145 1.0 6.0 0.00 0.01 0.01 73 1009.1
20260510042021 75 162 1.0 5.0 0.00 0.01 0.01 73 1009.2
20260510041538 75 134 1.0 5.0 0.00 0.01 0.01 73 1009.3
20260510041025 75 0 1.0 4.0 0.00 0.01 0.01 72 1009.3
20260510040523 75 0 1.0 4.0 0.00 0.01 0.01 72 1009.3
20260510040040 75 143 1.0 5.0 0.00 0.01 0.01 72 1009.4
20260510035522 76 130 1.0 5.0 0.00 0.02 0.01 71 1009.4
20260510035023 76 173 1.0 5.0 0.00 0.02 0.01 71 1009.6
20260510034538 76 167 2.0 5.0 0.00 0.02 0.01 71 1009.6
20260510034023 76 149 1.0 5.0 0.00 0.02 0.01 71 1009.6
20260510033522 76 0 1.0 3.0 0.00 0.02 0.01 71 1009.6
20260510033039 77 141 1.0 7.0 0.00 0.02 0.01 70 1009.5
20260510032522 77 148 2.0 8.0 0.00 0.02 0.01 70 1009.5
20260510032021 77 157 2.0 8.0 0.00 0.02 0.01 69 1009.5
20260510031551 77 200 2.0 7.0 0.00 0.02 0.01 69 1009.6
20260510031022 77 172 2.0 7.0 0.00 0.02 0.01 69 1009.5
20260510030523 77 183 1.0 6.0 0.00 0.02 0.01 69 1009.5
20260510030038 77 121 2.0 6.0 0.00 0.02 0.01 69 1009.5
20260510025523 77 97 2.0 6.0 0.00 0.02 0.01 69 1009.5
20260510025022 77 83 2.0 7.0 0.00 0.02 0.01 69 1009.4
20260510024537 77 97 2.0 7.0 0.00 0.02 0.01 68 1009.5
20260510024021 78 104 2.0 7.0 0.00 0.02 0.01 68 1009.5
20260510023521 78 97 2.0 8.0 0.00 0.02 0.01 68 1009.5
20260510023043 78 115 2.0 8.0 0.00 0.02 0.01 67 1009.5
20260510022522 78 95 3.0 7.0 0.00 0.02 0.01 67 1009.4
20260510022023 78 115 2.0 7.0 0.00 0.02 0.01 67 1009.5
20260510021539 78 118 2.0 6.0 0.00 0.02 0.01 66 1009.4
20260510021021 78 116 2.0 7.0 0.00 0.02 0.01 66 1009.3
20260510020521 79 195 2.0 7.0 0.00 0.02 0.01 65 1009.3
20260510020038 79 96 2.0 7.0 0.00 0.02 0.01 64 1009.3
20260510015521 79 161 2.0 7.0 0.00 0.02 0.01 64 1009.2
20260510015024 79 119 2.0 6.0 0.00 0.02 0.01 63 1009.2
20260510014536 79 124 2.0 6.0 0.00 0.02 0.01 63 1009.1
20260510014022 79 148 2.0 7.0 0.00 0.02 0.01 62 1009.2
20260510013523 80 83 2.0 7.0 0.00 0.02 0.01 61 1009.1
20260510013048 80 144 2.0 8.0 0.00 0.02 0.01 61 1009.0
20260510012522 80 94 2.0 8.0 0.00 0.02 0.01 60 1008.9
20260510012023 80 96 2.0 6.0 0.00 0.02 0.01 60 1008.8
20260510011538 80 119 2.0 8.0 0.00 0.02 0.01 59 1008.8
20260510011022 81 101 3.0 8.0 0.00 0.02 0.01 59 1008.6
20260510010522 81 93 2.0 8.0 0.00 0.02 0.01 59 1008.6
20260510010038 81 137 3.0 9.0 0.00 0.02 0.01 58 1008.5
20260510005522 81 138 3.0 9.0 0.00 0.02 0.01 58 1008.5
20260510005022 82 104 2.0 11.0 0.00 0.02 0.01 57 1008.5
20260510004538 82 90 2.0 11.0 0.00 0.02 0.01 55 1008.5
20260510004021 82 150 2.0 9.0 0.00 0.02 0.01 54 1008.5
20260510003521 82 158 2.0 9.0 0.00 0.02 0.01 54 1008.5
20260510003039 83 72 2.0 9.0 0.00 0.02 0.01 53 1008.4
20260510002522 83 92 2.0 8.0 0.00 0.02 0.01 53 1008.4
20260510002022 83 143 3.0 8.0 0.00 0.02 0.01 53 1008.4
20260510001537 83 147 2.0 9.0 0.00 0.02 0.01 52 1008.3
20260510001022 84 124 2.0 9.0 0.00 0.02 0.01 51 1008.5
20260510000521 84 107 2.0 10.0 0.00 0.02 0.01 48 1008.6
20260510000038 84 126 2.0 10.0 0.00 0.02 0.01 45 1008.6
20260509235522 84 90 3.0 10.0 0.00 0.02 0.01 47 1008.6
20260509235022 84 131 3.0 10.0 0.00 0.02 0.01 50 1008.6
20260509234541 85 94 3.0 9.0 0.00 0.02 0.01 51 1008.6
20260509234022 85 110 3.0 9.0 0.00 0.02 0.01 51 1008.6
20260509233521 85 109 2.0 9.0 0.00 0.02 0.01 51 1008.6
20260509233039 85 155 2.0 9.0 0.00 0.02 0.01 52 1008.6
20260509232522 85 107 4.0 9.0 0.00 0.02 0.01 51 1008.7
20260509232022 85 89 2.0 9.0 0.00 0.02 0.01 52 1008.6
20260509231538 85 114 4.0 9.0 0.00 0.02 0.01 51 1008.7
20260509231021 85 95 2.0 8.0 0.00 0.02 0.01 53 1008.6
20260509230521 85 76 3.0 8.0 0.00 0.02 0.01 52 1008.6
20260509230040 85 28 2.0 8.0 0.00 0.02 0.01 52 1008.6
20260509225522 85 74 2.0 10.0 0.00 0.02 0.01 54 1008.6
20260509225022 86 76 3.0 10.0 0.00 0.02 0.01 52 1008.6
20260509224539 85 34 1.0 8.0 0.00 0.02 0.01 54 1008.6
20260509224021 86 101 3.0 9.0 0.00 0.02 0.01 53 1008.6
20260509223524 85 115 4.0 11.0 0.00 0.02 0.01 54 1008.5
20260509223036 85 65 5.0 11.0 0.00 0.02 0.01 54 1008.5
20260509222522 86 115 2.0 9.0 0.00 0.02 0.01 56 1008.5
20260509222022 86 352 3.0 10.0 0.00 0.02 0.01 54 1008.5
20260509221535 86 156 3.0 10.0 0.00 0.02 0.01 54 1008.4
20260509221023 86 0 2.0 10.0 0.00 0.02 0.01 54 1008.5
20260509220521 86 86 4.0 10.0 0.00 0.02 0.01 55 1008.4
20260509220039 87 166 2.0 7.0 0.00 0.02 0.01 55 1008.5
20260509215522 85 136 1.0 9.0 0.00 0.02 0.01 57 1008.4
20260509215021 86 105 4.0 9.0 0.00 0.02 0.01 57 1008.5
20260509214539 86 172 2.0 9.0 0.00 0.02 0.01 56 1008.5
20260509214024 87 102 3.0 10.0 0.00 0.02 0.01 56 1008.5
20260509213522 87 212 1.0 11.0 0.00 0.02 0.01 57 1008.6
20260509213038 86 90 2.0 11.0 0.00 0.02 0.01 58 1008.7
20260509212522 87 101 4.0 11.0 0.00 0.02 0.01 57 1008.7
20260509212025 87 178 3.0 9.0 0.00 0.02 0.01 57 1008.9
20260509211544 87 108 2.0 10.0 0.00 0.02 0.01 58 1009.0
20260509211023 87 194 4.0 10.0 0.00 0.02 0.01 56 1008.9
20260509210521 87 174 3.0 10.0 0.00 0.02 0.01 57 1008.9
20260509210040 88 100 3.0 10.0 0.00 0.02 0.01 55 1009.1
20260509205521 87 200 2.0 10.0 0.00 0.02 0.01 57 1009.1
20260509205023 87 174 3.0 13.0 0.00 0.02 0.01 55 1009.2
20260509204541 87 146 3.0 13.0 0.00 0.02 0.01 57 1009.3
20260509204023 88 192 5.0 11.0 0.00 0.02 0.01 57 1009.2
20260509203519 88 138 2.0 9.0 0.00 0.02 0.01 56 1009.3
20260509203039 88 146 2.0 9.0 0.00 0.02 0.01 57 1009.3
20260509202522 87 98 2.0 8.0 0.00 0.02 0.01 57 1009.3
20260509202022 86 24 2.0 9.0 0.00 0.02 0.01 56 1009.4
20260509201537 86 82 2.0 9.0 0.00 0.02 0.01 56 1009.4
20260509201021 85 84 2.0 10.0 0.00 0.02 0.01 57 1009.5
20260509200521 87 21 3.0 10.0 0.00 0.02 0.01 55 1009.5
20260509200043 87 76 1.0 9.0 0.00 0.02 0.01 55 1009.5
20260509195527 87 30 4.0 9.0 0.00 0.02 0.01 56 1009.6
20260509195021 87 45 2.0 7.0 0.00 0.02 0.01 55 1009.6
20260509194538 88 205 1.0 9.0 0.00 0.02 0.01 55 1009.6
20260509194021 87 145 1.0 9.0 0.00 0.02 0.01 56 1009.7
20260509193522 86 151 2.0 9.0 0.00 0.02 0.01 54 1009.8
20260509193037 86 61 2.0 9.0 0.00 0.02 0.01 54 1009.9
20260509192522 86 146 2.0 8.0 0.00 0.02 0.01 54 1009.9
20260509192025 86 34 1.0 8.0 0.00 0.02 0.01 56 1009.9
20260509191541 85 5 3.0 10.0 0.00 0.02 0.01 55 1009.9
20260509191020 86 111 4.0 10.0 0.00 0.02 0.01 54 1010.0
20260509190520 86 52 2.0 7.0 0.00 0.02 0.01 58 1009.9
20260509190042 84 107 1.0 7.0 0.00 0.02 0.01 60 1009.9
20260509185522 84 98 1.0 6.0 0.00 0.02 0.01 59 1010.0
20260509185021 84 275 2.0 9.0 0.00 0.02 0.01 58 1010.1
20260509184554 84 333 3.0 9.0 0.00 0.02 0.01 59 1010.1
20260509184021 85 292 1.0 6.0 0.00 0.02 0.01 61 1010.1
20260509183521 83 116 1.0 5.0 0.00 0.02 0.01 64 1010.2
20260509183039 83 71 2.0 6.0 0.00 0.02 0.01 64 1010.3
20260509182521 83 0 1.0 6.0 0.00 0.02 0.01 62 1010.2
20260509182024 84 341 2.0 7.0 0.00 0.02 0.01 64 1010.3
20260509181545 83 0 2.0 7.0 0.00 0.02 0.01 63 1010.4
20260509181021 82 0 1.0 7.0 0.00 0.02 0.01 65 1010.4
20260509180525 82 92 2.0 7.0 0.00 0.02 0.01 64 1010.4
20260509180037 83 34 2.0 7.0 0.00 0.02 0.01 64 1010.6
20260509175521 82 32 3.0 10.0 0.00 0.02 0.01 67 1010.7
20260509175021 81 0 3.0 10.0 0.00 0.02 0.01 68 1010.7
20260509174536 81 336 2.0 6.0 0.00 0.02 0.01 67 1010.8
20260509174021 81 338 2.0 11.0 0.00 0.02 0.01 68 1010.8
20260509173524 81 31 3.0 11.0 0.00 0.02 0.01 68 1010.8
20260509173038 81 350 2.0 6.0 0.00 0.02 0.01 67 1010.9
20260509172521 81 269 2.0 7.0 0.00 0.02 0.01 67 1011.0
20260509172022 80 38 2.0 8.0 0.00 0.02 0.01 70 1011.0
20260509171539 80 341 2.0 8.0 0.00 0.02 0.01 69 1011.1
20260509171021 79 108 2.0 8.0 0.00 0.02 0.01 70 1011.1
20260509170521 80 327 2.0 8.0 0.00 0.02 0.01 70 1011.0
20260509170038 79 40 2.0 8.0 0.00 0.02 0.01 71 1011.0
20260509165521 79 350 4.0 11.0 0.00 0.02 0.01 71 1011.0
20260509165021 78 44 5.0 11.0 0.00 0.02 0.01 71 1011.0
20260509164537 78 360 3.0 8.0 0.00 0.02 0.01 72 1011.0
20260509164024 78 90 3.0 10.0 0.00 0.02 0.01 73 1011.0
20260509163521 78 319 3.0 10.0 0.00 0.02 0.01 73 1011.1
20260509163044 78 342 4.0 9.0 0.00 0.02 0.01 73 1011.1
20260509162521 78 36 5.0 10.0 0.00 0.02 0.01 73 1011.0
20260509162021 77 288 4.0 10.0 0.00 0.02 0.01 74 1011.0
20260509161535 77 325 5.0 10.0 0.00 0.02 0.01 74 1010.9
20260509161020 77 21 4.0 10.0 0.00 0.02 0.01 73 1010.9
20260509160521 76 349 3.0 8.0 0.00 0.02 0.01 76 1011.0
20260509160039 76 54 3.0 8.0 0.00 0.02 0.01 76 1011.0
20260509155521 75 45 2.0 8.0 0.00 0.02 0.01 75 1011.1
20260509155025 75 10 2.0 10.0 0.00 0.02 0.01 77 1011.0
20260509154544 75 24 2.0 10.0 0.00 0.02 0.01 77 1011.0
20260509154025 75 286 2.0 8.0 0.00 0.02 0.01 78 1011.0
20260509153524 74 32 2.0 5.0 0.00 0.02 0.01 79 1011.2
20260509153040 74 321 2.0 8.0 0.00 0.02 0.01 80 1011.0
20260509152521 74 75 2.0 8.0 0.00 0.02 0.01 80 1011.0
20260509152022 73 51 2.0 7.0 0.00 0.02 0.01 81 1011.0
20260509151537 73 289 2.0 7.0 0.00 0.02 0.01 81 1011.1
20260509151021 73 336 3.0 7.0 0.00 0.02 0.01 81 1011.1
20260509150519 73 338 3.0 8.0 0.00 0.02 0.01 82 1011.0
20260509150037 72 315 2.0 8.0 0.01 0.02 0.01 83 1011.1
20260509145521 72 284 1.0 8.0 0.01 0.02 0.01 83 1011.1
20260509145021 72 326 3.0 10.0 0.01 0.02 0.01 83 1011.2
20260509144542 71 301 3.0 10.0 0.01 0.02 0.01 84 1011.1
20260509144022 71 322 3.0 9.0 0.01 0.02 0.01 84 1011.2
20260509143522 71 360 4.0 9.0 0.01 0.02 0.01 84 1011.0
20260509143047 72 277 4.0 9.0 0.01 0.02 0.01 84 1011.1
20260509142518 71 323 3.0 10.0 0.01 0.02 0.01 84 1010.9
20260509142020 72 306 4.0 10.0 0.01 0.02 0.01 85 1010.8
20260509141543 71 320 4.0 9.0 0.01 0.02 0.01 85 1010.8
20260509141022 71 284 3.0 8.0 0.01 0.02 0.01 85 1010.9
20260509140519 71 275 3.0 10.0 0.01 0.02 0.01 85 1010.8
20260509140048 71 340 3.0 10.0 0.00 0.01 0.00 86 1010.8
20260509135520 71 300 2.0 8.0 0.00 0.03 0.00 87 1010.7
20260509135022 71 298 3.0 7.0 0.00 0.03 0.00 87 1010.7
20260509134537 71 320 1.0 5.0 0.00 0.03 0.00 88 1010.7
20260509134019 71 305 2.0 7.0 0.00 0.03 0.00 88 1010.7
20260509133519 71 303 3.0 7.0 0.00 0.03 0.00 88 1010.5
20260509133038 71 325 2.0 7.0 0.00 0.03 0.00 88 1010.4
20260509132520 70 13 2.0 7.0 0.00 0.03 0.00 89 1010.4
20260509132025 70 330 1.0 4.0 0.00 0.03 0.00 89 1010.5
20260509131540 70 322 1.0 4.0 0.00 0.03 0.00 89 1010.5
20260509131023 70 313 1.0 4.0 0.00 0.03 0.00 89 1010.4
20260509130519 70 351 0.0 2.0 0.00 0.03 0.00 90 1010.4
20260509130042 70 194 0.0 2.0 0.00 0.03 0.00 90 1010.5
20260509125519 70 157 0.0 1.0 0.00 0.05 0.00 90 1010.3
20260509125020 70 0 0.0 1.0 0.00 0.05 0.00 91 1010.4
20260509124541 69 157 0.0 1.0 0.00 0.05 0.00 91 1010.4
20260509124021 69 0 0.0 1.0 0.00 0.05 0.00 91 1010.3
20260509123522 69 0 0.0 1.0 0.00 0.05 0.00 91 1010.3
20260509123048 69 0 0.0 1.0 0.00 0.05 0.00 91 1010.3
20260509122521 69 0 0.0 1.0 0.00 0.05 0.00 91 1010.3
20260509122020 69 0 0.0 1.0 0.00 0.05 0.00 91 1010.4
20260509121538 69 0 0.0 2.0 0.00 0.05 0.00 91 1010.3
20260509121022 68 0 0.0 2.0 0.00 0.05 0.00 91 1010.2
20260509120522 68 0 0.0 3.0 0.00 0.05 0.00 91 1010.2
20260509120033 68 0 0.0 3.0 0.00 0.05 0.00 91 1010.3
20260509115521 68 0 0.0 2.0 0.00 0.24 0.00 90 1010.1
20260509115026 68 0 0.0 3.0 0.00 0.24 0.00 90 1010.1
20260509114541 69 147 1.0 3.0 0.00 0.24 0.00 90 1010.0
20260509114021 69 0 0.0 4.0 0.00 0.24 0.00 90 1010.0
20260509113521 69 0 0.0 4.0 0.00 0.24 0.00 90 1009.8
20260509113045 69 160 0.0 5.0 0.00 0.24 0.00 89 1009.6
20260509112518 69 157 1.0 5.0 0.00 0.24 0.00 89 1009.6
20260509112021 69 152 1.0 4.0 0.00 0.24 0.00 89 1009.5
20260509111546 69 163 0.0 2.0 0.00 0.24 0.00 89 1009.4
20260509111019 69 0 0.0 5.0 0.00 0.24 0.00 89 1009.3
20260509110521 69 0 0.0 5.0 0.00 0.24 0.00 89 1009.3
20260509110038 69 91 1.0 2.0 0.00 0.24 0.00 89 1009.2
20260509105519 69 0 0.0 3.0 0.00 0.33 0.00 89 1009.1
20260509105019 69 82 0.0 3.0 0.00 0.33 0.00 89 1009.1